Wind_Speed
4 3 5 7 8 5 4 7 10 11 11 10 10 6 3 3 6 4 1 3 5 6 8 9 8 7 7 7 6 5 5 5 4 3 4 4 3 2 2 2 2 1 3 5 6 8 11 14 15 16 18 20 18 16 20 25 27 30 31 28 26 25 23 23 24 26 27 27 28 29 29 29 30 30 30 29 27 26 27 29 28 27 27 27 26 25 25
5 3 4 10 12 8 5 8 9 10 8 7 7 6 6 7 8 6 4 5 7 7 7 7 6 6 5 4 5 5 6 6 5 4 5 4 4 4 3 2 3 3 4 2 3 7 9 11 13 15 16 18 20 21 22 23 22 24 29 30 29 28 27 25 25 25 24 25 26 28 29 30 30 31 32 30 28 27 27 28 29 28 28 28 28 27 26
6 6 4 10 13 12 9 7 4 8 7 6 6 4 4 6 6 3 4 5 5 4 5 6 5 5 4 5 7 7 7 7 6 6 6 5 5 5 4 3 3 4 4 5 5 4 1 5 9 11 12 15 18 18 20 22 21 21 26 30 29 28 27 27 27 26 24 23 22 22 26 29 29 28 29 29 29 30 30 29 29 28 29 29 29 29 27
5 4 6 9 10 12 9 6 2 6 6 4 4 4 3 3 2 1 2 4 1 1 4 4 4 5 6 7 7 7 6 7 7 7 6 6 6 6 5 4 4 4 5 5 6 8 6 1 8 11 13 15 16 18 19 21 22 21 23 26 28 29 29 28 27 26 23 21 20 17 17 21 25 26 24 22 20 22 26 29 29 29 30 30 30 30 29
4 4 4 6 6 8 4 3 3 4 4 1 2 5 5 4 3 1 1 1 1 1 4 3 3 5 7 7 6 5 4 6 7 7 7 7 7 6 6 5 5 5 5 6 8 10 9 4 6 13 18 19 19 20 23 24 24 22 19 18 19 21 23 23 23 22 21 19 19 17 12 11 16 22 23 21 15 11 15 20 23 25 28 29 29 30 29
3 5 2 3 4 3 2 3 3 4 3 2 4 3 5 5 3 1 1 1 1 3 4 3 3 5 5 5 5 5 5 5 6 7 8 8 7 7 7 6 6 6 7 9 11 11 11 9 6 3 11 19 20 19 21 23 24 23 20 16 13 12 13 16 19 20 21 20 19 20 16 9 10 15 19 20 15 8 8 11 13 14 17 20 24 26 27
2 2 5 5 2 1 3 2 1 2 3 3 5 4 4 5 5 3 1 1 1 3 4 3 5 5 4 5 7 8 7 5 5 6 6 7 7 7 7 7 7 9 12 13 14 15 14 12 10 10 9 13 17 15 15 16 17 17 18 17 15 12 11 11 14 16 17 17 16 17 16 12 10 13 13 12 13 11 9 9 9 10 10 10 12 16 19
1 3 4 2 1 1 2 1 1 3 3 1 3 4 4 4 3 3 3 3 1 3 4 3 4 3 3 5 7 7 6 6 5 4 5 6 7 7 7 8 9 12 15 16 16 17 18 15 13 13 12 13 15 14 13 12 11 11 12 12 12 12 12 10 11 12 13 14 14 13 13 11 10 12 11 9 12 15 13 11 12 13 14 13 12 11 13
2 2 2 2 2 1 2 3 3 3 3 3 3 1 4 5 2 2 2 4 4 1 2 3 3 2 2 5 5 5 6 6 6 5 5 6 6 7 9 10 12 14 16 17 17 18 18 17 16 14 13 14 15 16 15 14 13 12 11 10 9 9 10 9 8 7 6 8 8 8 8 8 9 11 9 8 10 14 15 16 17 17 17 19 18 16 15
3 4 3 2 1 2 5 6 5 3 3 3 2 3 2 6 3 3 3 4 5 3 2 2 1 2 3 3 2 3 5 5 5 6 7 8 9 9 11 12 14 15 16 17 17 18 19 18 17 16 16 16 18 18 17 16 16 15 14 12 10 8 7 7 5 3 3 4 5 6 6 6 7 10 9 8 9 11 14 17 18 18 18 20 20 20 19
2 4 3 2 3 4 5 6 6 4 4 4 2 4 2 6 4 4 4 4 6 5 4 2 1 3 1 1 1 1 3 4 4 4 6 9 10 11 11 12 13 13 14 16 17 18 18 16 15 17 18 19 20 20 18 19 19 18 16 14 11 9 6 5 5 5 4 4 4 4 4 7 8 8 8 9 9 10 12 14 15 17 18 19 21 23 24
2 4 2 2 3 3 4 6 6 4 4 4 5 2 4 5 3 3 4 4 5 5 3 2 2 2 2 2 3 2 1 4 5 6 7 8 10 10 10 11 11 12 13 15 16 17 16 14 14 15 18 20 21 19 18 19 19 17 16 15 14 12 10 8 6 5 4 3 2 3 4 5 6 7 7 8 8 9 10 12 13 15 16 18 20 22 23
2 4 2 2 3 4 4 5 5 3 2 4 3 3 6 3 2 1 3 4 3 2 3 2 2 2 1 3 4 3 4 5 6 8 9 10 10 10 9 9 11 13 14 14 15 15 14 13 13 14 17 20 20 19 19 19 16 13 13 13 14 14 15 13 11 8 5 4 3 2 2 3 4 6 6 7 8 9 10 11 13 14 15 15 16 17 18
2 2 2 0 3 4 4 3 3 1 2 2 4 5 3 2 3 1 3 3 2 2 1 1 2 2 3 4 5 5 5 4 5 7 10 11 10 9 9 9 11 13 14 14 15 15 14 14 14 14 17 19 19 18 19 17 13 11 12 13 13 14 14 15 15 13 11 9 8 6 4 2 2 3 3 4 6 7 8 9 10 12 13 14 13 12 11
2 3 2 1 2 4 3 1 1 0 2 4 4 1 2 2 3 3 4 3 3 3 3 3 4 4 5 6 6 5 5 5 5 7 9 10 10 10 10 10 10 12 14 15 15 15 15 15 15 15 17 19 19 20 20 17 12 10 11 13 13 13 14 14 14 14 13 12 11 11 9 7 4 4 3 1 2 4 6 7 7 8 9 9 9 6 5
3 2 1 3 4 5 3 3 3 3 3 4 4 3 2 2 2 3 3 3 3 4 5 4 4 5 5 5 6 6 5 4 5 6 8 10 11 11 11 10 10 12 14 15 15 15 15 15 15 16 17 18 19 20 20 17 12 10 9 10 11 12 13 14 14 14 14 14 14 14 13 12 11 10 9 6 3 1 3 5 7 8 8 8 8 8 8
3 4 5 5 4 3 1 3 4 3 1 1 3 5 3 1 1 2 3 3 3 4 5 5 4 3 4 4 4 5 5 4 5 6 8 9 11 12 12 11 10 11 12 13 13 13 13 14 14 14 14 15 17 18 18 16 13 11 9 9 10 11 11 13 13 13 13 14 14 14 14 14 14 15 14 12 8 4 3 4 7 8 10 11 12 12 12
2 1 1 1 1 0 2 2 1 2 3 2 3 5 3 1 2 3 4 5 5 4 5 4 3 2 3 3 3 4 5 5 6 8 9 9 9 10 10 10 9 8 9 10 11 11 11 11 12 12 11 12 14 15 14 14 13 12 11 11 10 10 9 10 10 10 10 11 11 12 13 13 14 15 16 16 14 9 7 7 8 8 9 10 12 13 13
3 1 2 2 1 2 3 3 3 3 3 2 3 4 3 3 3 4 5 6 6 5 5 5 4 3 4 3 2 2 4 5 6 8 9 8 8 8 7 7 6 5 6 8 8 8 8 8 9 9 9 9 10 11 11 11 12 10 10 11 11 11 9 8 8 8 9 9 8 9 10 11 12 12 12 14 15 14 12 12 12 11 10 10 12 12 12
2 3 5 2 2 2 1 1 2 3 4 3 3 3 3 3 4 4 5 6 6 5 4 5 5 4 4 4 4 3 2 3 5 6 7 8 8 7 5 4 4 3 4 4 5 5 5 6 7 8 9 9 8 9 9 10 10 9 10 10 10 10 10 9 8 9 9 10 11 11 10 11 13 14 12 12 15 17 16 14 13 12 12 13 12 11 11
2 0 1 1 4 4 5 4 3 4 5 5 4 4 5 5 5 5 4 4 5 6 6 5 5 5 4 4 5 4 3 3 5 6 6 6 7 6 5 3 3 3 3 2 2 3 4 5 6 7 8 9 8 8 9 9 9 8 8 8 8 9 9 9 10 10 11 12 13 13 12 13 14 14 14 13 15 17 17 16 14 12 12 13 12 10 10
2 3 5 5 4 2 4 6 5 5 5 6 6 5 5 5 5 5 5 4 4 6 8 8 7 5 5 6 6 5 5 6 7 7 6 4 5 6 5 3 2 1 2 4 4 5 5 5 6 6 7 8 8 8 8 8 8 7 5 5 7 8 8 8 8 8 9 11 12 12 13 13 13 13 13 13 14 16 17 16 14 13 12 12 10 6 5
5 7 9 8 5 4 6 6 5 5 5 6 7 5 5 5 4 5 5 5 4 3 5 9 10 7 6 8 9 6 7 10 11 10 8 7 5 5 5 5 5 4 2 2 3 5 6 6 6 7 7 7 7 7 7 7 7 6 3 2 3 4 6 7 7 7 7 8 8 9 9 11 12 13 13 13 13 14 15 15 14 13 12 11 9 7 5
3 6 9 7 4 5 7 7 5 5 5 7 7 5 4 4 4 5 5 4 4 4 3 6 9 9 9 11 11 9 9 12 12 11 11 10 8 6 6 6 6 7 6 5 3 3 4 5 6 7 6 7 7 7 6 6 6 5 3 1 1 1 2 3 4 5 5 6 6 6 6 7 8 10 11 12 13 13 13 14 15 14 14 13 12 10 9
3 5 8 6 4 5 6 4 3 4 6 8 6 4 5 6 5 7 6 4 5 6 4 3 5 7 9 11 12 11 11 12 12 12 12 11 9 9 8 8 8 9 9 8 6 4 3 4 5 6 6 6 6 7 6 4 3 4 4 2 1 0 1 1 0 0 1 2 3 4 4 4 5 6 7 9 11 13 13 13 13 13 13 13 12 12 10
3 5 7 5 3 4 5 5 3 3 6 9 7 5 7 9 8 7 7 6 6 8 7 6 4 5 8 10 11 10 9 9 10 10 10 10 10 10 10 10 11 11 11 10 8 6 5 4 4 5 6 6 6 6 6 4 3 3 3 2 1 1 2 3 3 3 3 2 1 1 2 4 5 5 4 5 8 11 12 11 11 11 12 12 13 14 14
4 8 9 7 4 2 4 5 5 6 8 10 10 8 8 10 10 8 7 6 6 7 7 8 7 6 6 8 9 8 7 6 6 6 8 9 9 10 9 9 10 10 11 11 10 9 8 7 6 7 7 6 6 6 6 5 4 4 4 4 3 3 3 4 4 4 4 4 4 3 2 2 3 4 4 5 8 10 10 10 10 10 11 13 13 14 14
5 5 5 6 7 8 6 5 7 9 9 11 12 11 9 9 10 8 6 6 6 6 7 8 8 8 7 6 6 7 7 6 6 6 6 6 6 6 6 6 7 8 10 11 11 10 10 10 10 11 10 8 7 7 7 7 6 6 6 6 6 6 6 6 5 5 5 5 5 5 5 3 1 1 3 4 7 11 11 11 11 11 10 12 12 12 13
5 3 3 3 6 7 6 5 7 8 7 8 10 11 9 8 7 5 4 5 7 6 6 6 7 7 7 7 6 7 8 7 6 4 4 4 4 4 5 5 6 7 8 10 11 11 12 12 13 15 15 12 9 9 9 8 8 8 8 8 7 7 6 6 7 7 6 5 4 4 5 4 3 1 2 3 4 9 12 12 11 10 9 9 9 10 11
4 4 4 5 6 8 8 7 7 6 5 6 7 7 7 7 6 5 5 5 7 7 7 8 8 7 7 7 8 8 8 7 5 4 3 2 1 2 3 5 5 6 8 10 11 12 14 15 16 18 19 15 12 12 12 10 9 9 9 9 8 7 6 7 8 7 6 5 3 2 3 3 2 1 1 2 3 6 10 12 11 9 8 7 8 9 10
3 4 7 7 7 8 8 7 6 6 5 5 6 5 5 6 6 5 5 5 6 8 10 10 10 9 8 8 8 8 8 7 6 5 4 3 2 2 3 5 6 7 8 9 11 12 13 15 17 19 20 18 15 15 14 13 11 11 11 11 10 9 8 8 9 7 6 5 3 2 2 2 2 1 2 2 4 6 9 11 11 9 7 6 7 8 8
6 6 7 6 6 7 7 6 6 6 5 5 6 6 6 6 6 6 6 7 8 9 11 11 11 11 10 9 9 9 8 7 6 5 4 3 3 4 6 7 8 9 9 10 10 11 12 13 14 16 17 18 17 17 16 15 15 14 14 14 12 10 9 9 8 7 7 5 4 2 2 1 2 3 3 4 5 6 9 11 10 8 6 6 6 7 7
8 6 5 5 6 6 6 5 6 7 6 5 6 8 8 9 9 8 9 10 9 9 10 11 11 10 8 8 8 7 5 4 3 2 2 2 3 3 4 6 7 9 10 10 11 11 12 12 13 14 15 16 17 18 18 18 18 17 17 16 14 12 11 10 9 8 7 6 5 3 2 2 3 3 4 5 6 8 10 11 10 9 7 6 7 7 6
11 9 9 10 9 9 8 7 5 6 5 4 5 7 9 11 11 11 12 11 9 9 10 10 9 8 7 6 5 4 2 1 1 2 3 3 4 4 4 4 5 6 7 8 9 9 10 11 12 13 13 14 15 17 19 21 21 20 19 17 16 15 13 12 10 9 8 7 6 5 4 3 3 4 5 6 8 10 12 12 11 10 9 9 9 8 7
13 10 11 13 12 11 10 9 7 7 6 4 4 6 9 11 13 14 14 13 12 12 12 11 10 9 7 6 4 3 3 2 2 2 3 4 5 5 5 5 6 6 7 8 8 8 9 9 11 12 13 13 14 15 18 20 22 23 21 19 18 17 16 14 12 11 10 10 9 8 6 5 5 5 5 7 9 12 13 13 12 11 10 11 11 11 10
11 8 7 10 12 12 12 12 11 11 9 8 7 7 9 10 12 12 12 12 12 12 12 11 10 9 8 7 6 5 3 2 1 1 2 3 3 4 5 6 6 7 8 9 9 10 10 10 10 11 12 12 12 13 14 17 20 23 23 21 20 20 19 17 16 13 12 13 12 11 9 7 6 6 6 7 9 12 13 13 13 11 11 11 11 12 12
13 12 11 10 12 13 13 14 15 14 12 10 11 11 11 11 12 12 12 11 11 11 10 10 10 9 8 7 5 4 3 2 2 1 1 2 3 4 5 7 7 8 9 10 11 12 11 11 12 12 12 12 12 13 13 14 17 21 22 22 22 22 21 21 19 17 15 14 14 12 10 8 8 7 6 7 10 13 15 15 14 13 12 11 10 11 11
13 15 15 15 14 14 13 14 16 17 16 13 12 13 15 15 15 14 13 12 11 10 10 10 9 9 8 7 6 5 5 4 2 2 1 3 4 6 7 8 9 9 10 12 13 13 12 13 13 13 13 13 13 14 14 14 16 19 20 21 22 23 23 22 22 21 19 17 16 15 13 11 9 8 7 8 11 14 15 16 15 14 13 11 10 10 10
9 11 14 15 14 14 14 15 16 18 19 17 15 15 16 17 15 14 14 12 11 10 9 9 8 8 7 7 6 6 4 2 1 2 3 4 5 6 8 9 9 9 11 13 14 14 14 14 15 15 15 15 15 16 16 15 15 16 18 20 21 22 23 24 24 24 22 20 19 19 17 15 13 11 9 9 12 14 15 16 15 15 14 12 10 10 10
8 10 13 15 15 15 16 15 15 16 19 19 18 18 17 17 15 15 14 12 10 8 7 7 7 6 6 6 5 4 3 0 2 3 3 4 5 6 9 11 11 11 11 12 13 14 14 15 15 16 16 16 16 16 16 16 15 15 17 19 20 20 23 25 25 24 23 21 21 22 20 18 17 14 12 12 14 15 15 14 14 14 13 12 11 10 10
10 13 15 16 15 15 16 16 16 16 17 19 19 18 17 16 15 14 12 10 9 7 6 5 5 5 5 5 4 3 2 1 2 2 3 4 5 6 8 11 12 12 11 11 12 12 13 14 15 15 14 14 13 13 14 14 14 15 16 18 18 18 21 22 21 20 20 19 19 20 20 19 18 16 15 16 16 15 14 13 13 13 13 12 12 11 11
13 15 16 15 15 16 17 18 18 17 17 17 17 16 14 12 12 11 10 10 9 7 6 5 5 5 5 4 3 3 2 1 2 2 4 5 5 5 7 9 11 12 12 13 13 13 12 12 12 13 12 11 9 9 11 12 12 13 14 15 14 15 16 18 18 18 17 16 15 16 17 16 16 16 17 17 17 16 15 14 14 14 13 13 12 12 11
16 17 15 15 16 17 19 19 19 18 17 16 15 14 12 10 10 10 9 9 8 7 6 6 5 4 4 5 4 4 3 0 1 2 3 3 3 4 7 9 11 12 12 13 14 13 11 11 11 11 11 9 8 7 8 9 9 8 8 8 9 10 10 11 13 15 16 16 16 17 16 15 15 15 16 16 16 15 15 15 15 15 14 14 13 12 11
18 18 17 17 18 19 19 19 18 17 16 16 14 12 11 9 8 8 8 8 7 6 6 6 5 4 4 5 5 4 2 2 2 1 1 2 4 5 6 8 10 12 12 12 12 12 11 10 10 9 7 6 6 5 4 4 3 4 5 6 6 7 6 5 5 7 10 12 15 16 15 14 13 14 15 15 15 14 15 15 16 15 15 14 14 13 13
18 19 20 21 20 20 20 19 18 17 17 16 14 11 10 9 8 7 8 8 8 8 7 5 5 5 5 5 4 3 3 3 2 2 2 2 4 5 6 7 8 10 10 9 9 9 9 9 7 5 4 4 4 3 2 3 4 5 5 5 5 5 5 4 4 6 7 9 11 12 12 12 12 12 14 15 15 15 16 17 17 16 16 16 15 14 13
18 19 21 22 20 19 20 19 19 18 18 16 13 10 9 8 8 9 9 9 9 8 7 5 4 4 5 5 5 4 4 3 2 2 3 3 3 4 5 6 6 7 7 7 6 5 6 7 5 3 2 2 2 2 2 3 3 3 2 2 2 3 4 5 7 9 10 10 10 10 11 11 12 12 13 13 14 16 17 17 17 16 15 14 14 13 12
20 19 20 20 20 20 20 20 19 17 16 13 11 9 8 8 10 11 11 10 9 8 7 5 4 4 5 5 5 5 4 3 2 1 2 3 4 4 5 4 4 4 5 5 4 4 4 5 4 2 1 2 4 4 3 1 2 4 5 6 6 7 7 8 8 9 10 10 10 9 10 10 11 11 12 13 14 15 15 15 14 14 13 13 12 12 12
21 20 20 22 22 21 21 19 17 15 14 13 11 9 9 11 13 13 12 10 10 9 7 5 4 4 4 4 4 3 2 2 1 1 2 2 3 3 3 3 3 4 4 4 4 5 5 4 4 3 2 2 1 0 1 1 3 5 8 10 10 10 10 11 11 11 9 8 7 8 9 9 10 11 12 12 13 13 13 12 12 12 12 12 11 12 11
23 23 22 23 22 21 19 17 14 13 13 12 10 10 12 14 15 15 14 12 11 10 8 6 5 5 4 4 3 2 2 2 2 3 2 2 2 2 2 3 3 4 4 4 5 6 5 4 5 5 4 3 4 4 2 2 3 6 8 10 9 7 6 7 8 8 7 7 7 8 9 10 11 11 11 11 11 11 10 10 10 10 10 10 11 11 11
22 22 20 19 19 18 17 15 13 13 12 10 10 14 17 17 16 15 15 13 12 11 9 7 6 5 5 4 3 2 1 1 1 2 2 1 2 3 3 3 2 2 3 4 5 5 4 4 5 4 3 2 1 4 4 3 3 5 8 9 8 7 7 8 9 9 10 11 13 13 13 12 12 10 9 9 9 9 9 9 8 7 8 9 11 11 11
21 20 19 17 17 16 15 14 13 12 11 11 14 17 18 15 15 16 16 14 13 12 11 9 8 7 6 5 4 2 1 1 1 1 1 1 1 2 1 1 1 1 1 3 5 5 6 5 3 1 2 3 2 3 5 4 4 6 9 11 11 11 11 11 12 12 13 14 14 13 12 12 10 9 9 9 8 8 9 9 7 5 5 8 10 11 10
20 19 18 16 14 14 13 13 12 11 11 13 17 18 16 14 14 16 16 14 14 13 12 10 9 8 8 7 5 4 3 3 2 1 1 1 1 1 2 2 2 2 1 2 4 5 6 4 1 4 3 3 2 1 4 7 8 9 10 11 11 10 10 10 10 10 11 11 11 10 11 10 10 9 9 9 8 8 9 9 6 4 4 6 8 9 8
Wind_Direction
266 189 160 148 115 81 30 18 2 349 358 22 39 32 16 103 108 104 71 58 59 39 33 38 29 18 24 24 23 36 47 46 47 63 76 79 77 65 48 30 357 42 107 145 180 188 181 172 174 180 184 192 197 195 199 203 200 196 196 199 199 199 204 208 210 211 214 217 220 224 227 229 229 229 230 233 236 239 239 237 237 239 240 240 241 241 240
319 353 135 138 114 93 67 40 3 329 342 28 42 37 45 75 99 127 132 86 61 40 39 37 15 360 4 17 35 50 61 64 62 58 54 61 67 57 41 5 340 356 32 65 191 197 186 171 166 169 173 181 186 188 193 196 196 196 195 195 197 197 198 202 208 211 213 215 220 225 227 229 230 230 230 232 235 237 239 239 238 240 241 241 241 243 242
326 343 102 130 117 109 103 79 3 307 327 13 18 19 49 68 83 133 135 91 62 42 51 35 0 354 14 41 53 54 53 54 60 65 54 36 42 51 49 37 17 12 25 23 0 342 253 182 164 155 158 166 174 180 183 183 190 199 197 193 195 197 196 199 204 208 209 209 214 223 229 230 230 231 231 231 234 236 238 241 243 243 242 240 240 241 242
310 338 93 119 113 102 93 75 13 319 338 6 1 357 9 41 61 136 106 79 19 27 78 48 1 15 36 39 39 43 51 51 48 53 52 39 38 44 44 42 38 30 33 32 21 17 14 166 169 159 152 150 155 161 164 170 182 195 198 193 194 197 198 198 199 201 204 205 207 219 237 236 227 226 227 229 236 244 242 241 244 244 242 241 240 239 239
290 302 115 136 112 88 64 7 347 309 306 2 35 11 353 356 25 71 95 126 240 103 88 72 23 33 38 34 27 23 42 57 50 40 37 36 36 36 33 28 34 39 40 42 40 32 28 47 165 171 161 151 152 157 159 162 169 179 188 189 187 191 195 195 195 197 199 201 201 205 227 248 233 221 217 218 230 259 257 243 240 240 237 236 236 236 236
271 293 26 83 71 74 255 297 339 310 301 73 85 36 341 349 20 93 152 188 186 94 95 106 85 62 41 31 28 21 25 45 48 36 27 24 22 21 20 20 23 30 38 47 48 40 30 30 37 99 144 148 152 156 154 152 155 162 170 174 173 176 181 186 193 196 196 197 199 199 206 233 250 232 214 203 202 220 245 234 227 228 231 233 233 233 234
256 322 41 60 59 200 224 253 4 321 321 47 75 47 351 355 4 354 347 352 94 105 110 119 105 91 66 45 35 26 22 27 39 39 30 25 22 18 16 15 19 30 39 44 43 38 32 36 47 52 83 126 139 142 143 145 148 156 164 171 175 178 174 179 189 191 191 196 202 205 208 219 246 251 231 197 187 200 220 226 219 211 215 225 231 233 233
40 20 50 102 191 250 248 244 217 225 257 331 51 19 333 333 346 325 309 299 275 114 110 124 131 126 85 56 38 20 15 19 30 43 44 39 32 25 23 23 27 37 45 48 48 47 45 47 55 60 71 99 113 114 119 128 132 143 158 168 175 181 183 187 195 194 194 200 205 211 218 222 236 251 245 214 208 217 223 233 235 224 215 217 220 224 229
116 78 53 83 68 351 253 244 240 207 204 204 146 143 284 284 261 224 249 265 258 194 125 150 168 161 90 58 33 4 5 21 32 43 50 49 41 35 36 40 45 50 56 60 61 63 64 61 60 64 75 93 102 101 103 107 107 110 118 121 128 149 163 169 176 182 191 203 204 203 205 203 210 226 226 213 218 222 218 225 234 232 226 225 225 224 227
102 98 79 74 99 219 225 233 246 222 201 221 163 123 279 280 250 183 185 229 245 234 211 219 182 81 68 66 27 347 357 18 34 45 48 49 48 47 47 51 53 56 62 69 71 73 74 72 72 76 81 87 90 91 95 100 103 100 95 94 106 122 130 142 163 180 193 208 209 201 204 213 218 222 219 210 212 215 215 222 231 236 237 237 236 236 238
76 105 116 167 195 224 230 233 249 242 205 203 104 69 303 264 232 177 171 212 238 227 215 223 102 80 61 211 208 289 355 16 30 52 61 60 59 58 58 61 61 61 67 75 77 77 74 72 76 84 88 86 82 78 81 89 93 95 92 93 107 119 119 140 178 183 164 171 179 175 200 231 238 235 231 227 226 226 226 231 236 240 243 244 244 244 246
103 109 124 202 213 240 238 230 247 249 196 148 88 41 269 242 207 170 162 192 232 225 191 146 130 155 186 177 179 187 62 54 60 70 70 64 61 59 60 67 75 79 78 74 69 64 62 63 70 78 83 82 76 71 74 78 80 86 94 101 108 115 118 124 138 141 121 102 101 129 159 196 220 229 233 235 238 238 238 239 241 243 244 246 248 249 249
97 102 119 243 256 249 232 235 259 258 148 110 108 222 237 201 157 171 150 160 205 207 167 154 166 192 167 128 137 119 80 77 72 70 71 71 68 63 61 67 77 79 75 68 61 55 53 57 62 69 76 74 68 65 66 65 64 72 88 98 103 107 109 108 105 103 98 85 83 118 156 182 215 228 230 231 232 235 238 239 240 243 244 245 248 251 250
90 109 115 338 285 252 211 228 289 317 124 170 215 225 232 130 128 100 83 106 116 122 143 110 94 115 111 107 107 95 91 99 85 74 78 79 73 69 69 69 72 75 72 66 61 55 52 57 60 67 72 68 62 59 55 48 51 66 78 86 92 98 103 105 101 99 97 90 83 82 86 113 194 211 219 228 226 226 232 239 241 242 243 246 247 246 244
110 76 68 64 265 248 206 146 346 37 163 207 218 205 27 59 113 100 79 88 110 113 96 74 91 104 99 99 103 102 103 105 93 87 90 86 78 73 71 69 72 78 75 67 61 56 54 57 61 65 67 61 54 50 42 38 51 74 78 79 83 88 94 98 98 98 98 95 88 83 80 81 81 68 53 23 243 225 227 233 234 230 231 234 229 211 191
119 102 181 198 213 244 227 157 176 210 209 206 182 126 61 40 90 101 92 93 118 132 124 113 109 103 97 107 115 111 106 105 96 92 93 93 88 81 76 76 80 83 78 69 63 59 55 54 56 59 60 57 51 45 38 39 54 72 76 75 76 77 80 84 87 91 93 92 89 84 79 75 69 62 58 56 57 133 194 194 190 184 182 181 166 139 128
156 174 209 215 221 262 281 148 174 190 178 182 140 117 105 103 119 114 108 109 120 131 126 120 111 102 108 116 113 111 113 111 106 104 98 94 92 86 80 80 80 79 76 72 65 60 54 50 50 50 52 54 49 41 37 43 52 60 65 67 68 70 73 76 80 83 83 82 81 77 74 71 65 60 57 57 61 72 98 134 152 151 145 146 139 124 115
150 150 240 183 140 113 58 71 100 126 104 97 105 102 107 176 168 130 127 136 145 145 135 128 124 132 138 123 105 112 117 111 115 118 110 100 99 95 87 84 83 79 75 71 67 62 54 47 44 41 41 47 45 38 38 44 48 51 56 58 60 66 71 73 72 70 68 67 66 65 66 64 63 61 56 53 57 68 80 93 112 123 120 119 115 109 107
104 62 275 259 182 175 138 91 60 67 82 81 101 114 135 175 150 129 134 141 144 149 150 149 153 161 157 144 130 122 120 122 130 129 120 110 104 95 83 80 85 83 71 63 61 59 53 44 36 31 30 35 35 31 33 40 42 46 52 57 61 65 68 68 65 61 59 58 56 57 59 59 64 70 65 57 57 66 81 93 101 106 101 93 89 90 93
120 215 238 266 347 326 290 100 115 122 107 91 89 108 128 129 110 112 128 136 143 154 160 156 158 167 172 167 173 187 172 154 152 145 136 128 117 101 83 67 61 59 61 60 53 45 40 31 20 16 17 20 17 14 18 25 30 39 49 56 62 66 67 67 67 67 69 69 66 67 67 66 70 76 80 77 71 70 81 93 98 98 97 92 87 86 85
72 206 221 42 31 357 320 296 247 186 150 129 107 97 103 105 101 103 104 115 150 169 170 159 155 169 193 195 183 190 206 202 191 183 167 149 141 134 120 89 52 32 20 4 355 356 358 359 360 0 5 9 7 4 6 7 10 25 43 53 59 65 69 73 74 73 73 72 70 71 73 74 74 73 77 84 86 84 86 93 96 97 100 99 95 92 87
156 205 189 169 148 183 245 243 224 203 171 136 118 111 114 117 127 130 108 87 114 155 165 167 165 170 196 202 190 188 210 219 215 211 208 196 177 165 156 156 161 95 1 333 321 325 329 334 341 345 349 354 357 359 3 5 4 7 22 42 56 66 71 74 75 73 71 71 71 72 74 77 79 78 75 78 87 90 91 93 96 100 104 102 96 89 81
211 211 191 175 148 162 207 212 201 197 172 134 131 146 150 142 148 144 123 105 103 123 156 171 173 175 187 192 188 190 212 222 222 222 227 229 217 196 190 195 194 192 213 283 304 323 330 328 325 325 326 329 333 343 355 5 10 8 2 14 49 67 72 74 77 77 76 75 73 72 78 83 85 87 87 82 81 84 87 89 90 92 94 93 88 77 57
217 209 188 178 153 162 189 193 187 186 165 140 143 161 160 151 154 145 138 143 149 142 152 178 184 185 184 185 189 195 209 219 223 224 229 235 234 226 227 228 216 211 217 227 249 304 332 335 329 327 324 318 317 325 337 351 5 10 6 4 52 98 88 82 86 90 90 86 75 71 83 95 95 96 98 95 89 88 91 91 90 90 91 89 86 79 64
201 189 170 168 167 160 158 146 147 172 158 138 136 155 155 149 152 148 147 154 156 150 151 178 198 195 184 180 189 200 211 221 228 227 225 230 233 233 237 243 242 238 241 243 242 254 289 315 326 331 333 329 323 324 328 329 336 352 2 17 57 147 242 277 329 113 136 126 95 79 87 107 116 114 110 109 110 110 109 104 97 94 94 87 77 72 68
190 136 119 107 94 113 116 106 110 188 166 137 128 153 159 150 146 143 141 148 154 151 148 151 167 191 192 188 190 197 204 217 227 228 225 225 230 233 238 248 256 259 260 258 254 253 262 274 290 306 320 330 327 324 326 319 299 296 313 326 334 308 285 284 288 289 285 278 265 192 138 133 136 137 136 144 145 138 131 124 112 98 91 83 72 69 72
143 128 116 101 90 133 175 169 168 187 176 147 140 152 155 144 138 128 115 124 143 144 140 141 138 144 173 188 188 185 182 183 191 206 216 221 229 239 246 255 263 263 260 262 265 265 267 269 269 276 293 311 315 312 315 316 298 274 270 279 284 282 282 281 282 285 292 296 297 284 248 186 159 149 147 164 176 172 158 144 133 115 96 84 75 72 75
138 142 127 136 164 188 206 190 162 165 171 161 151 148 140 129 129 123 107 109 126 129 132 139 139 136 142 157 164 161 162 166 169 182 206 220 230 243 254 262 267 262 259 263 268 271 274 275 273 274 282 291 294 291 293 302 298 274 257 261 268 272 281 286 284 283 286 289 289 283 274 273 281 149 143 157 181 188 180 164 151 138 115 96 87 84 84
151 145 93 124 154 149 132 129 143 154 167 164 149 139 131 126 125 129 135 138 135 132 136 146 150 145 143 147 154 156 159 167 176 184 205 224 237 251 261 267 272 266 261 262 263 264 267 270 272 277 283 286 283 276 275 283 289 274 254 254 264 270 282 299 297 284 274 273 275 267 258 266 295 308 152 149 169 183 184 178 167 153 133 115 105 100 96
170 138 108 108 122 122 124 140 157 165 172 167 146 133 134 140 146 160 177 171 157 153 159 163 164 160 156 160 168 169 166 166 164 159 160 181 228 263 268 269 271 267 265 266 265 262 262 263 267 275 282 285 282 275 268 266 272 269 255 253 264 268 275 298 304 285 258 252 263 266 254 255 270 282 186 164 160 171 178 179 174 162 146 127 110 103 102
138 113 112 119 131 140 147 156 163 170 174 160 144 137 138 148 165 184 196 197 184 176 175 177 177 179 181 181 179 175 173 172 169 169 172 177 200 236 252 260 264 268 276 284 284 278 272 268 269 275 282 283 278 273 269 261 259 262 258 259 268 271 272 288 296 274 244 244 262 274 274 254 230 212 191 178 171 170 172 172 167 160 150 130 104 92 96
110 100 110 121 133 142 147 152 157 164 164 147 148 161 168 171 181 189 191 200 200 190 183 186 191 194 196 196 190 185 185 184 183 189 201 220 242 257 266 268 269 274 284 294 300 300 293 285 283 287 289 282 272 269 268 263 258 260 262 264 270 269 265 277 285 264 240 243 259 267 277 256 194 185 178 176 177 174 172 167 158 148 140 123 99 82 83
120 116 132 143 141 144 161 179 173 168 170 168 170 177 179 180 184 185 185 191 198 196 192 196 201 201 196 189 185 185 188 191 199 218 260 289 302 305 300 292 289 289 292 296 301 304 303 300 303 306 301 288 274 266 262 259 258 260 263 266 270 268 262 265 273 262 246 245 251 250 240 200 176 174 172 173 173 171 168 163 154 142 129 112 94 78 73
158 170 179 177 167 165 178 191 187 179 183 185 178 174 171 170 171 172 172 174 179 183 185 182 175 170 164 161 167 177 184 199 292 359 8 6 2 358 349 340 331 320 313 311 311 310 310 311 313 312 305 296 283 269 258 253 253 255 258 261 264 264 260 257 258 252 240 234 232 228 218 193 171 167 171 173 174 172 167 162 153 142 126 113 104 98 98
173 173 175 175 173 172 173 175 177 178 179 177 180 181 174 167 162 161 163 165 165 165 164 158 154 157 161 160 158 152 137 123 78 30 12 0 354 347 339 335 331 323 318 314 309 310 314 316 314 310 305 299 290 278 267 257 251 249 249 253 258 259 255 252 251 247 235 224 218 217 215 202 182 174 173 175 178 178 173 165 157 147 134 124 119 118 120
171 155 158 173 176 173 172 173 176 178 175 167 163 165 164 162 157 154 157 161 160 158 158 158 158 162 161 154 149 141 128 123 100 22 3 358 355 346 336 332 330 327 323 316 310 314 319 316 313 311 307 302 297 290 280 269 258 251 246 245 251 255 253 248 248 248 239 227 220 219 218 207 193 187 182 178 183 185 179 169 161 154 145 137 133 130 129
173 163 162 171 175 174 175 177 174 169 158 147 142 139 137 139 140 140 141 145 147 151 157 158 156 151 145 143 146 141 126 122 117 92 65 28 359 344 336 332 329 325 321 315 313 314 314 310 310 309 303 298 296 292 285 276 266 258 250 244 245 249 251 248 244 242 237 231 225 222 218 212 205 201 193 187 188 187 180 172 165 159 155 151 146 142 139
176 172 169 171 173 172 170 168 164 154 140 128 127 131 132 132 132 131 132 133 136 143 147 146 144 144 141 138 138 131 121 115 105 79 21 346 338 332 327 325 324 321 317 314 311 307 302 299 301 301 297 292 289 287 286 280 269 259 253 247 244 245 248 247 241 233 229 229 225 220 216 217 216 211 200 193 190 185 178 172 167 164 162 160 155 151 146
159 162 163 162 158 152 145 144 147 145 139 131 126 127 131 134 132 129 126 125 128 136 138 134 135 139 139 138 139 136 130 124 77 353 330 322 320 316 310 310 314 316 311 305 302 300 298 297 298 296 294 291 286 284 285 285 278 265 256 251 249 248 248 245 236 227 223 222 218 213 211 211 209 205 199 193 189 182 176 172 169 168 168 166 162 158 152
149 151 151 147 142 138 135 133 135 140 141 140 136 134 135 137 134 130 126 123 124 130 133 133 137 142 143 145 146 142 135 125 326 323 308 297 301 307 306 307 313 319 318 311 306 306 306 307 306 302 297 293 289 286 284 283 282 273 260 253 252 249 243 236 228 221 219 216 211 207 205 202 199 198 195 191 186 182 178 174 171 170 170 170 167 163 157
150 150 147 142 139 137 135 132 131 134 137 138 138 138 139 139 135 131 130 129 130 133 133 136 144 149 147 149 153 155 167 259 300 303 292 295 307 314 312 315 325 336 337 332 327 323 319 318 318 314 305 297 293 292 289 286 284 275 264 257 252 242 230 223 216 212 211 210 206 204 203 200 197 195 191 185 183 184 183 180 177 177 178 178 175 169 162
149 147 142 137 136 137 135 133 132 130 131 133 134 134 136 137 134 132 132 134 136 136 133 134 142 149 152 159 170 173 181 219 272 285 289 300 313 316 316 325 339 348 346 341 338 334 329 329 330 326 319 313 307 303 299 293 285 274 264 257 248 231 218 213 211 211 214 213 207 202 199 195 192 189 184 180 181 184 184 181 179 179 180 179 175 171 167
150 146 140 137 140 140 138 137 135 131 131 135 136 135 135 135 134 134 137 140 141 140 140 144 151 158 167 178 182 175 166 183 308 291 281 289 309 319 324 333 342 345 342 341 342 341 338 336 334 332 330 329 322 310 300 292 281 264 245 231 218 205 200 202 206 210 212 208 198 190 184 179 178 179 180 181 183 184 182 180 179 179 179 179 175 172 171
149 146 143 143 145 143 140 138 137 135 136 139 140 140 140 141 141 145 149 150 150 151 155 160 165 171 179 186 184 170 140 86 44 6 280 272 292 310 324 335 339 341 343 345 346 346 343 338 336 340 343 337 325 315 302 280 248 216 197 192 191 192 193 188 186 194 197 190 181 179 178 177 178 183 188 188 187 184 183 184 184 184 183 181 177 175 174
146 147 146 145 145 145 144 144 143 141 141 141 143 145 147 148 150 157 160 159 157 158 161 165 169 174 178 179 172 156 130 98 69 43 11 307 293 303 319 328 331 336 343 346 345 345 345 343 346 356 356 332 315 302 270 239 226 222 226 235 240 241 240 239 235 227 213 193 183 186 188 184 182 187 190 189 188 188 189 189 189 188 187 184 180 178 176
141 144 145 144 144 147 149 148 147 146 144 144 146 150 154 155 158 162 164 163 160 160 164 170 173 178 184 181 170 159 153 141 105 43 22 5 331 321 328 334 335 337 343 347 348 352 353 352 355 3 1 352 1 359 275 243 221 194 189 208 219 219 216 212 210 207 198 186 181 183 181 174 173 178 180 181 183 185 185 183 182 181 182 182 179 176 176
138 139 141 142 144 146 147 147 146 146 147 149 153 159 165 168 166 164 163 162 160 161 166 170 171 180 193 196 190 184 181 175 158 43 12 10 2 348 339 336 335 335 335 341 357 11 8 3 6 16 67 94 84 71 59 94 149 144 141 142 144 152 164 171 172 172 172 171 170 169 167 169 174 177 177 176 178 178 176 174 173 173 174 175 175 175 175
138 140 141 142 143 145 147 148 148 152 156 159 162 167 172 170 164 159 158 160 161 162 162 163 166 174 185 196 206 213 215 213 231 312 324 335 352 355 340 320 323 336 341 345 352 354 350 346 345 338 305 224 209 293 38 101 145 156 156 152 145 140 140 144 145 145 149 156 161 163 165 170 174 176 176 176 175 174 172 171 171 170 171 173 176 178 178
141 141 142 143 145 148 151 153 155 159 163 166 169 171 168 162 157 156 160 163 164 163 162 164 170 176 180 190 207 223 253 286 304 319 322 313 311 313 300 290 305 325 335 338 341 344 347 350 347 342 329 284 255 245 219 174 170 175 174 173 172 168 165 166 167 170 180 194 195 189 183 179 176 173 173 173 173 174 175 174 172 171 174 179 182 183 183
140 139 142 147 152 156 159 161 162 164 168 172 172 168 164 160 157 161 167 171 169 166 166 171 178 184 188 196 211 235 275 308 336 10 10 316 290 297 303 300 298 309 329 341 344 341 340 343 344 348 2 6 257 224 205 184 178 190 194 195 193 188 186 187 185 184 187 190 188 185 182 180 175 172 172 174 176 178 179 176 168 164 174 185 189 187 184
142 144 149 155 161 164 166 168 170 173 179 182 176 170 169 170 170 171 175 177 173 169 171 179 188 193 195 200 211 227 236 209 100 76 61 348 319 329 332 270 218 222 334 358 353 342 332 325 309 238 101 56 1 257 227 209 188 182 186 188 185 178 177 178 177 175 176 178 180 180 181 178 174 171 171 173 178 184 185 179 168 156 171 190 195 194 190
142 147 151 158 166 171 175 180 188 192 192 186 179 177 179 181 178 177 180 185 185 181 182 188 195 200 203 207 212 213 206 201 199 184 160 121 73 82 124 162 187 202 265 337 341 343 346 342 243 169 132 64 23 235 194 183 174 168 167 171 174 176 177 178 178 179 181 182 182 183 183 181 179 177 174 171 173 182 187 188 187 187 192 199 204 205 204
Height
797 797 799 802 805 809 812 812 813 812 806 804 809 810 805 800 808 821 820 814 815 814 808 808 806 802 800 798 794 792 790 787 786 787 787 787 788 788 786 784 782 780 780 780 780 779 778 777 778 778 779 781 783 786 789 790 789 788 790 794 797 798 800 803 805 806 808 811 812 814 816 817 818 819 820 822 823 824 825 825 826 827 828 829 830 830 831
796 796 800 802 803 809 814 814 816 817 812 807 809 809 806 804 810 816 816 816 815 811 809 809 806 802 800 796 793 793 793 792 790 788 788 788 788 788 785 783 782 779 777 776 776 775 775 776 777 777 778 779 780 781 784 788 791 791 789 791 793 795 797 800 803 805 807 809 811 812 813 814 815 816 818 819 821 822 823 823 824 825 826 827 828 829 829
801 799 802 803 803 808 815 817 818 818 814 809 808 809 808 809 814 815 814 816 816 811 809 809 806 803 800 797 797 796 796 796 794 792 791 789 788 788 786 783 781 779 777 776 776 775 776 777 777 778 778 779 779 780 781 784 790 794 792 790 791 794 796 797 800 803 805 807 809 811 812 812 813 814 815 817 819 820 820 821 822 823 824 825 826 827 828
810 803 806 809 806 809 817 821 822 821 818 815 813 812 810 810 814 814 811 814 817 813 809 810 808 805 804 803 802 800 799 798 797 796 794 791 790 789 788 785 783 781 780 778 778 778 778 778 778 777 777 778 779 779 780 782 787 792 794 791 790 792 793 795 797 800 803 805 806 809 812 813 811 810 812 814 816 818 818 819 820 821 822 823 823 824 825
812 806 809 809 806 815 826 826 824 822 819 817 816 813 811 809 809 811 811 813 814 810 810 812 812 809 808 808 806 804 803 800 799 798 796 794 793 791 790 788 786 784 783 781 780 781 780 779 778 777 776 777 778 778 778 780 783 788 793 793 793 794 793 794 796 798 801 803 804 807 811 814 812 808 807 810 814 816 818 818 818 818 819 819 820 821 822
812 810 809 810 818 833 835 825 820 820 817 816 817 818 816 812 809 810 812 811 809 809 811 814 814 813 812 810 808 806 805 803 802 801 799 797 796 794 793 791 788 787 785 784 783 783 783 782 781 780 779 778 779 780 780 780 782 785 789 792 795 797 796 796 797 798 800 802 804 805 807 811 814 811 808 807 810 815 818 817 816 816 817 818 818 819 820
811 810 812 824 839 840 828 817 815 815 816 816 817 818 816 812 811 812 812 811 809 809 812 812 814 815 813 811 809 808 806 805 805 804 802 800 798 797 796 794 792 790 789 788 787 787 787 786 784 783 783 781 781 783 783 783 784 785 787 790 794 797 798 798 799 799 799 801 802 803 803 807 812 814 811 808 808 811 814 815 815 815 815 816 817 818 818
814 818 823 833 839 830 820 818 815 812 815 816 817 819 816 811 812 814 813 811 809 808 811 812 813 814 812 811 811 810 809 808 806 806 805 803 801 800 799 797 796 794 792 792 791 791 791 790 788 787 786 784 784 785 785 786 787 788 790 792 794 796 798 799 800 800 799 800 800 801 802 805 808 812 813 810 809 808 810 814 816 815 813 813 814 815 816
818 828 833 833 832 831 828 822 815 811 813 814 815 821 818 809 808 812 812 812 809 808 811 811 811 812 813 816 816 813 811 810 808 808 807 805 804 802 800 800 799 797 796 795 794 794 794 794 793 791 790 788 787 787 787 788 789 791 792 794 796 797 798 799 800 800 800 801 801 801 802 804 806 809 810 810 809 808 809 813 816 814 812 811 811 812 813
817 826 835 838 839 838 828 817 809 806 808 808 808 816 817 808 803 807 810 811 810 810 811 811 811 812 814 819 821 816 813 812 811 810 809 807 806 804 803 802 801 800 800 798 798 797 797 797 798 796 794 793 791 790 790 790 791 793 794 796 797 798 799 799 800 801 801 802 802 802 802 804 806 807 808 808 809 809 810 812 813 812 810 810 810 811 812
815 819 829 836 836 828 817 810 806 804 805 804 806 817 820 807 800 803 806 808 809 809 810 811 812 814 815 819 822 817 814 814 813 812 811 810 808 807 806 805 804 803 803 802 801 800 799 800 800 799 797 796 794 794 794 793 793 793 795 798 799 798 799 799 800 801 801 801 801 801 802 804 805 806 806 806 807 808 809 810 810 809 809 808 808 808 809
816 819 825 829 826 818 811 807 804 803 802 801 813 828 821 802 798 802 803 805 806 806 808 810 812 815 816 817 818 816 814 815 814 814 813 812 811 810 808 807 806 805 805 805 804 803 803 803 803 802 800 799 798 798 797 796 796 796 798 800 801 800 800 799 799 800 801 801 802 801 802 803 804 805 804 804 805 805 806 806 807 807 806 806 806 806 806
820 822 826 829 822 812 806 803 801 800 802 808 822 826 809 795 798 801 800 803 805 804 807 810 811 814 815 814 815 815 814 815 815 815 815 813 812 812 811 810 808 807 807 807 807 806 807 806 805 805 803 802 802 802 801 800 800 800 801 802 803 803 802 801 801 801 801 801 802 802 802 802 802 803 803 803 803 803 803 804 804 804 804 804 804 804 804
824 824 826 830 824 809 800 801 800 799 807 815 816 808 798 796 799 799 799 803 805 805 807 810 811 814 815 814 815 815 815 816 816 816 815 814 814 813 812 811 810 809 809 809 809 809 809 808 808 807 806 805 805 805 805 804 805 804 804 804 804 804 804 804 804 803 803 803 803 804 804 803 804 804 803 802 802 801 802 802 801 801 802 803 803 803 803
824 828 828 830 823 808 799 801 803 802 808 810 803 799 799 799 797 799 802 804 805 806 809 811 813 814 814 815 816 816 816 816 816 816 816 816 816 815 814 813 813 812 811 811 811 812 811 810 810 809 808 807 807 807 806 807 807 807 806 806 805 805 805 805 804 804 805 805 805 806 806 806 805 804 802 801 801 800 800 800 800 801 802 802 802 802 802
818 824 824 818 811 804 800 801 802 801 802 800 797 798 801 799 798 801 803 804 807 808 809 811 814 814 815 816 816 817 817 817 817 817 817 817 817 817 816 815 814 814 813 813 813 813 813 812 812 811 810 810 809 809 809 809 809 808 808 807 807 806 806 806 805 806 806 806 807 808 808 807 806 804 802 801 801 801 801 800 800 801 801 802 802 803 803
812 814 811 806 803 802 800 799 798 798 799 798 797 797 799 801 801 802 803 807 809 809 810 812 813 814 815 816 816 817 818 818 818 818 818 818 818 818 817 817 816 815 815 815 815 815 814 814 814 813 813 812 811 812 812 812 811 810 809 808 807 807 807 807 807 807 807 807 807 807 808 807 806 805 804 802 801 801 801 801 801 802 802 803 803 804 805
809 807 804 803 803 802 799 798 798 798 798 798 798 798 799 801 802 802 804 807 809 809 811 812 812 814 815 815 816 817 818 818 819 818 818 819 819 818 818 818 817 817 816 816 816 816 816 815 815 814 814 813 813 814 814 813 813 812 811 810 809 809 809 808 809 809 808 808 808 808 808 808 807 806 806 804 803 802 801 801 802 803 804 805 805 806 806
809 810 807 804 804 803 801 799 799 798 798 799 799 799 800 801 802 803 804 806 808 810 811 811 812 814 814 815 816 817 817 819 819 819 819 819 819 819 819 819 819 818 818 817 817 817 817 817 816 816 815 815 814 815 814 814 814 813 812 811 811 810 810 810 810 810 810 810 810 809 809 809 809 808 807 807 805 804 802 803 803 804 806 806 807 808 808
809 809 806 805 805 804 801 800 800 799 800 800 800 800 801 801 802 803 805 806 809 810 811 812 813 814 814 815 815 816 817 818 818 819 820 820 820 820 820 819 819 819 818 818 818 818 817 817 817 817 816 816 815 815 815 815 815 814 813 813 812 812 811 811 811 811 812 812 812 812 812 811 810 810 809 809 808 806 805 805 806 807 807 807 808 809 810
811 811 808 807 808 807 804 802 801 799 800 801 801 802 802 802 803 804 806 807 808 809 811 812 813 814 815 815 815 816 817 817 817 818 819 819 820 821 820 820 820 819 819 819 818 818 818 818 818 818 817 817 817 816 816 816 815 815 815 814 814 813 813 812 812 813 813 813 814 814 814 814 813 812 812 811 810 809 808 808 808 809 809 809 810 811 810
813 809 803 803 806 806 804 801 799 800 800 800 802 803 803 803 804 805 806 807 808 809 810 811 812 814 814 815 815 816 816 816 817 817 818 819 820 820 820 821 821 820 820 820 819 819 819 819 819 819 818 818 818 817 817 817 816 816 816 816 815 815 814 814 814 814 814 815 815 816 816 816 816 816 815 814 813 812 811 810 811 811 811 811 812 812 812
802 797 795 796 797 799 800 798 798 800 800 800 802 803 804 804 805 805 806 808 809 810 810 811 812 813 813 814 815 816 816 816 817 817 818 818 819 819 820 821 821 822 822 821 820 820 820 820 820 819 819 818 818 818 818 818 818 818 818 817 817 817 816 816 816 816 816 816 817 817 818 818 818 818 818 817 816 815 814 814 814 813 812 812 813 813 813
790 789 792 794 793 794 796 797 798 800 800 800 802 803 804 805 805 806 807 807 808 810 811 811 812 812 813 814 814 815 816 816 816 817 818 818 819 819 820 820 821 821 821 821 822 821 821 821 820 820 819 819 818 819 819 819 819 819 819 819 819 818 818 818 818 818 818 818 818 819 819 819 819 819 819 819 819 819 818 817 817 816 815 814 814 814 813
785 785 789 792 792 793 795 796 799 800 799 800 802 804 804 805 805 806 807 807 808 809 810 811 812 812 813 814 814 815 816 816 816 817 818 818 819 820 820 820 820 820 821 821 822 822 822 822 821 821 820 820 819 819 819 819 820 820 820 820 820 820 820 820 820 819 819 819 819 820 820 820 820 820 820 820 820 820 820 820 819 819 818 817 816 815 814
784 785 789 793 795 795 796 799 801 801 800 800 802 804 804 805 805 806 806 807 808 809 810 811 811 812 813 814 815 816 816 816 817 818 818 819 820 820 820 820 820 820 821 821 821 822 822 822 822 822 821 821 821 820 820 820 820 820 820 821 821 821 821 821 821 821 821 820 820 820 820 820 820 820 820 820 820 820 820 821 821 821 821 820 819 818 816
785 785 788 794 798 798 797 797 798 799 800 800 801 803 805 805 806 806 807 807 808 809 810 811 811 812 813 814 815 816 817 817 818 818 818 819 819 820 820 821 821 821 821 821 821 822 822 822 822 822 822 822 822 821 821 821 820 820 821 821 821 821 821 821 821 821 821 821 821 821 821 820 820 820 820 820 819 819 819 819 820 821 821 821 821 820 818
786 785 786 790 795 796 795 795 796 798 800 800 801 803 804 805 806 807 808 809 809 810 810 811 811 812 813 814 815 816 817 817 818 819 819 819 820 820 821 821 821 822 822 821 822 822 822 822 822 822 822 822 822 822 822 822 821 821 821 821 821 821 821 821 821 821 821 821 821 821 821 821 820 820 819 819 818 819 819 819 819 820 820 821 821 821 821
786 786 786 788 789 792 794 796 798 799 800 800 801 803 804 805 807 809 809 809 810 810 811 811 812 812 813 814 815 816 817 818 819 819 819 820 820 821 821 821 822 822 822 822 822 822 822 822 822 821 821 822 822 822 822 822 822 822 821 821 821 821 821 821 821 820 820 820 820 820 820 820 820 820 819 819 818 818 819 819 819 819 820 821 821 821 821
787 787 788 789 791 793 795 797 799 800 800 801 802 803 804 806 807 809 810 810 810 810 811 811 812 812 813 813 814 815 816 817 818 819 819 820 820 821 821 822 822 822 822 822 822 822 822 822 821 820 820 821 821 822 822 822 822 822 821 822 822 821 821 821 820 820 820 820 820 820 820 820 820 820 819 819 819 818 819 819 819 820 820 821 821 821 821
789 788 788 790 792 793 795 797 799 800 800 801 802 804 805 806 807 808 810 810 810 810 810 811 811 812 812 813 814 814 815 816 817 818 819 819 820 821 821 821 821 822 821 821 821 821 821 821 821 820 819 820 821 821 821 821 821 821 821 822 821 821 821 821 820 820 820 820 820 820 820 820 820 820 819 819 819 819 819 819 819 820 821 821 821 821 821
789 791 791 792 793 794 796 797 798 799 801 802 802 803 805 806 806 807 808 809 809 809 810 810 811 812 812 813 813 814 815 815 816 817 818 818 819 820 820 820 821 821 821 821 821 821 821 821 820 819 819 820 820 820 820 820 820 820 821 821 821 821 821 821 821 821 821 821 821 820 820 820 820 819 819 819 819 819 819 820 820 821 821 822 822 822 822
789 792 793 794 794 795 797 798 798 799 800 801 801 802 803 804 805 806 807 807 808 808 809 810 811 812 812 813 814 814 815 815 816 816 817 818 818 819 819 819 820 820 820 821 821 821 821 820 819 819 819 819 819 819 819 819 819 819 819 820 820 820 820 820 821 821 820 821 821 821 820 820 820 820 820 820 820 820 820 820 821 821 822 822 823 823 824
783 786 787 789 790 792 794 796 798 799 800 801 801 802 803 803 804 805 806 807 807 808 809 810 810 812 813 814 814 815 815 815 816 816 816 817 817 818 818 818 818 819 819 819 819 820 820 819 819 819 818 818 818 818 818 818 818 818 818 819 819 819 819 819 820 820 820 820 820 820 821 821 820 820 820 820 820 820 820 821 821 822 822 823 824 824 825
778 780 782 784 786 788 790 793 796 797 799 800 801 802 802 803 804 804 805 806 807 808 809 809 811 812 813 813 814 815 815 815 816 816 816 816 816 817 817 817 818 818 818 818 819 819 818 818 818 818 817 817 817 817 817 817 817 817 818 818 818 818 818 818 818 818 818 819 819 820 820 820 820 821 821 820 821 821 821 821 822 822 823 824 825 825 826
778 780 783 785 786 788 789 791 793 795 796 798 800 801 802 803 804 805 806 807 807 808 809 810 811 812 812 813 814 814 815 815 815 816 816 816 816 816 817 817 817 817 817 817 817 817 817 817 817 816 816 816 816 815 815 815 815 815 816 817 817 817 817 817 817 817 817 817 818 818 819 820 820 820 821 821 822 821 821 822 823 823 824 825 825 826 827
778 779 782 784 785 787 789 790 792 794 796 797 799 800 802 803 804 806 807 807 808 809 810 810 811 812 813 813 814 814 814 815 815 815 816 816 816 816 816 816 816 816 816 816 816 816 816 816 815 815 814 814 814 814 814 814 814 814 814 815 815 815 816 816 816 816 817 817 817 818 818 819 819 819 820 821 821 822 822 823 823 824 825 826 826 827 827
777 778 780 782 784 787 788 790 791 793 795 797 799 801 802 804 805 806 807 808 809 810 810 811 812 813 813 814 814 814 815 815 815 815 816 816 816 816 816 816 816 816 815 815 815 814 814 814 813 813 812 812 812 812 812 812 812 812 812 813 813 813 814 814 815 815 815 816 817 817 818 818 819 819 820 820 821 821 822 822 823 825 826 826 827 828 828
777 779 780 782 784 787 788 790 792 793 794 797 799 801 802 804 805 807 808 809 810 810 811 811 812 813 813 814 814 814 815 815 815 815 815 815 815 815 815 815 815 815 814 814 813 812 812 811 811 810 810 810 810 810 810 810 810 810 810 811 811 811 812 812 812 812 813 814 814 815 816 817 818 819 820 820 821 821 822 822 823 824 826 827 828 828 829
776 779 781 782 785 787 788 790 793 794 795 796 798 800 803 804 805 807 808 809 810 811 811 812 812 813 813 814 814 814 815 815 815 815 815 815 815 815 814 814 814 814 813 812 811 810 810 809 809 808 808 808 807 807 807 807 808 808 808 808 809 809 809 810 810 810 811 812 812 813 814 815 816 817 818 820 821 822 822 822 823 824 825 827 828 828 829
775 778 780 782 784 787 788 791 793 794 796 797 799 801 803 804 805 807 808 809 810 811 811 812 812 812 813 814 814 814 814 814 814 814 814 814 814 814 814 813 813 812 812 811 810 809 808 808 807 806 806 805 805 805 805 805 805 806 806 806 806 807 807 808 808 809 810 811 812 813 813 814 815 816 817 819 820 822 823 823 823 824 825 826 827 828 829
776 778 780 783 785 787 789 791 793 795 797 799 800 801 803 804 805 807 808 809 810 811 811 812 812 812 813 813 813 814 814 814 814 814 814 813 814 814 813 813 812 811 810 810 809 808 807 807 806 805 804 804 804 803 803 803 803 804 804 805 805 805 806 807 808 809 810 811 812 813 813 814 815 816 817 818 819 821 822 823 824 824 826 826 827 827 828
775 778 780 783 786 787 789 791 793 795 797 799 800 802 803 804 805 807 808 809 810 811 811 811 812 812 812 813 813 813 814 814 813 813 813 813 814 813 813 812 811 810 810 809 808 807 806 806 805 805 804 803 803 803 803 803 803 803 804 805 805 806 807 807 808 808 809 809 810 811 812 813 814 816 817 819 819 820 822 823 824 825 826 827 827 828 828
775 777 780 783 785 787 789 791 793 795 797 799 800 802 803 804 805 807 808 809 810 810 811 811 812 812 812 813 813 813 813 813 813 813 813 813 813 813 812 812 811 810 810 809 808 807 806 806 805 805 804 804 803 803 803 804 804 805 805 806 806 807 807 808 809 809 810 810 811 812 813 813 814 816 817 819 820 821 821 822 824 825 826 827 827 828 828
775 777 780 782 785 787 789 791 793 795 797 799 800 802 803 804 805 806 807 808 809 810 811 811 811 812 812 812 812 813 813 813 813 813 813 813 813 812 812 811 811 810 810 809 809 808 807 806 805 805 805 804 804 804 804 804 804 805 805 806 806 807 808 808 809 810 811 812 813 813 814 814 814 816 818 819 820 821 821 822 824 825 826 827 827 828 828
776 778 781 783 785 787 789 791 793 795 797 799 801 802 803 804 805 806 807 808 809 810 810 811 811 811 812 812 812 813 813 813 813 813 813 812 812 812 812 811 811 811 810 810 809 809 808 807 806 806 806 805 805 805 804 804 804 805 805 806 806 807 808 808 809 810 812 813 814 814 814 814 815 817 818 820 820 821 822 823 824 825 826 827 827 828 829
776 779 781 783 785 788 790 792 793 795 797 799 800 802 803 804 805 806 807 808 809 809 810 811 811 811 811 812 812 812 813 813 813 813 813 812 812 812 812 812 812 811 811 811 810 810 809 808 807 807 807 807 806 806 806 806 805 806 806 807 807 807 808 808 809 811 813 814 814 815 815 816 817 818 819 820 821 822 822 823 824 825 826 827 827 828 829
776 779 781 784 786 788 790 792 793 795 797 798 800 801 802 804 805 806 807 808 809 809 810 811 811 811 811 812 812 812 813 813 813 813 812 812 812 812 812 812 812 812 812 811 811 810 810 810 809 809 808 808 808 807 807 807 807 807 808 808 808 809 809 810 810 812 814 815 816 817 817 818 819 820 820 821 821 822 823 823 824 825 826 827 828 828 829
776 778 781 784 786 788 790 792 793 795 796 798 799 801 802 803 805 806 807 808 809 809 810 810 811 811 812 812 812 813 813 813 813 812 812 812 812 812 813 813 812 812 812 812 811 811 810 810 810 809 809 809 808 808 808 808 808 809 809 809 810 811 811 812 812 813 814 816 817 818 818 819 820 821 821 821 822 822 823 823 824 825 826 827 827 828 829
777 780 783 785 786 788 790 791 792 794 796 797 799 800 802 803 804 806 807 807 808 809 810 810 811 811 812 812 812 812 812 813 813 812 812 813 813 813 812 812 812 812 812 812 811 811 811 810 810 810 809 809 809 809 809 808 809 809 810 810 811 812 812 812 813 813 814 816 817 818 819 819 820 821 821 822 822 822 823 824 824 825 826 826 827 828 829
778 781 783 785 787 789 790 791 793 794 795 797 798 800 801 802 803 805 806 807 808 809 809 810 811 811 812 812 812 812 813 813 813 813 813 813 812 812 812 812 812 812 812 812 812 811 811 810 810 810 810 810 809 809 809 809 809 810 810 811 812 813 813 814 814 815 816 817 817 818 819 819 820 820 821 821 822 823 823 824 824 825 825 826 827 828 829
779 782 784 786 788 789 790 792 793 794 795 796 798 799 800 802 803 804 805 806 807 808 808 809 810 810 811 811 812 812 812 813 813 813 813 813 812 812 812 812 812 812 812 812 812 812 811 810 810 810 811 811 810 810 810 810 811 811 812 812 813 814 815 815 816 816 816 817 818 818 818 819 819 820 820 820 821 822 823 823 824 824 825 826 827 827 828